DELTA 1 DEB, 42635

Orbit data source: Space-Track

DELTA 1 DEB, 42635 is space debris in SSO originally from a launch on Thu, 12 Jun 1975 UTC launched from the Air Force Western Test Range (AFWTR). Debris objects in space refer to the collection of defunct objects orbiting the Earth. Examples of debris include non-operational satellites, rocket bodies, and fragments generated from explosions, collisions, or faulty payload assembly.

Loading next visibility...
Identifier
42635, 1975-052LU
Orbit
SSO
Country
Flag of USUS
Related business
Manufacturer
Unknown
Mission
Spacecraft
Bus & Motor
Unknown
Mass
Unknown
Launch date (UTC)
1975-06-12 (51 years ago)
Launch vehicle
Unknown
Launch site
Air Force Western Test Range (AFWTR)
Object type
Payload
Rocket body
Debris
Shape & HBR
Unknown shape, 0.1 m
Radar Cross Section
Medium (>0.1 m² and <1 m²)

Expand to show TLE details & history
Last TLE update: 3 days ago

TLE from 3 days ago
0 DELTA 1 DEB
1 42635U 75052LU  26170.02908707  .00000114  00000-0  22310-3 0  9995
2 42635  99.7711  84.2761 0043833 277.5658 101.4414 13.56842725622261
Epoch: 2026-06-19T00:41Z
TLE epoch observation values (Epoch: 2026-06-19T00:41:53.122Z)
Latitude
19.20473°
Longitude
163.11954°
Altitude
1,056.109 km
Speed
7.322 km/s
True Right ascension
05h 23m 25s
True Declination
19° 06' 09"
Sunlit
Object was in daylight at epoch
Visualization orbit readout
Latitude
Unknown
Longitude
Unknown
Altitude
Unknown
Speed
Unknown
Apparent Right ascension
Unknown
Apparent Declination
Unknown
Sunlit
N/A
Visualization observer readout
Local Sidereal Time
21:38:58
Azimuth
Unknown
Elevation
Unknown
Doppler factor
Unknown
Orbital elements
Apogee altitude
1,077.02 km
Perigee altitude
1,011.949 km
Semi-major axis
7,422.621 km
Eccentricity
0.00438
Inclination
99.7711°
RAAN
84.2761°
Arg. of periapsis
277.5658°
True anomaly
101.93317°
Mean anomaly
101.4414°
Eccentric anomaly
101.68734°
Mean motion
3.39396 °/min
Orbital period
106.07 mins
BSTAR
0.0002231
Loading maneuver chart data...
Computing Atmospheric mass density...
Loading historical data...
Loading historical data...
Loading historical data...
Loading historical data...
Loading historical data...
Loading historical data...
Loading historical data...

Documentation

Showing up to 5 results
|